Location: Dzierzno
(50.6159°N, 19.2852°E)
Time: 21:03:27
(UTC+00:00)

Cosmos 841 Rocket - Pass Details

Date: 18 November 2025
Orbit: 742 x 768 km, 74.0° (Epoch: 10 December)

Event Time Altitude Azimuth Distance (km) Brightness Sun altitude
Rises 17:26:42 0° 333° (NNW) 3,249 7.1 -24.1°
Reaches altitude 10° 17:29:06 10° 330° (NNW) 2,319 6.3 -24.5°
Maximum altitude 17:34:17 60° 251° (WSW) 877 4.0 -25.3°
Enters shadow 17:38:53 13° 174° (S) 2,104 5.7 -26.0°
